www.pogodaiklimat.ru
Время
(UTC), дата
15 8.12
18 8.12
21 8.12
00 9.12
03 9.12
06 9.12
09 9.12
12 9.12
15 9.12
18 9.12
21 9.12
00 10.12
03 10.12
06 10.12
09 10.12
12 10.12
15 10.12
18 10.12
21 10.12
00 11.12
03 11.12
06 11.12
09 11.12
12 11.12
15 11.12
18 11.12
21 11.12
00 12.12
03 12.12
06 12.12
09 12.12
12 12.12
15 12.12
18 12.12
21 12.12
00 13.12
03 13.12
06 13.12
09 13.12
12 13.12
15 13.12
18 13.12
21 13.12
00 14.12
03 14.12
06 14.12
09 14.12
12 14.12
15 14.12
18 14.12
21 14.12
00 15.12
03 15.12
06 15.12
09 15.12
Ветер
(напр.,м/с)
Видим. Явления Облачность Т
(С)
Тd
(С)
f
(%)
Тe
(С)
Тes
(С)
Комфортность P
(гПа)
Po
(гПа)
Тmin
(С)
Tmax
(С)
R
(мм)
R24
(мм)
S
(см)
штиль 0 50 км ясно -26.5 -30.8 67 -27 -27 1001.6 958.7
штиль 0 50 км ясно -29.2 -33.0 70 -29 -29 1000.8 957.5
штиль 0 500 м переохл. туман ясно -29.2 -32.9 70 -29 -29 1002.1 958.7 -30.0 73
штиль 0 50 км местами туман поземный ясно -22.1 -25.2 76 -22 -21 1002.2 960.0
штиль 0 50 км 3/3 1000 м
[Sc]
-14.2 -16.7 81 -14 -13 1000.8 960.0
ЮВ 1 50 км 8/8 600 м
[Sc Ci fib]
-20.7 -23.4 79 -24 -24 1001.9 960.0
штиль 0 4000 м слаб. ливневой снег 8/6 600 м
[Cb cap Ci fib]
-21.4 -24.1 79 -21 -21 1002.0 960.0 -13.3
штиль 0 50 км ледяные иглы 8/4 600 м
[Sc diur, vesp Ci fib]
-26.7 -30.1 73 -27 -27 1003.7 960.7
штиль 0 50 км ледяные иглы 8/8 600 м
[Sc Ci fib]
-29.3 -33.0 70 -29 -29 1006.1 962.5
штиль 0 50 км ледяные иглы 8/8 600 м
[Sc Ci fib]
-32.2 -36.3 67 -32 -32 опасность
обморожения
1009.5 965.3
штиль 0 50 км ледяные иглы 8/0
[Ac trans Ci fib]
-33.2 -37.3 66 -33 -33 опасность
обморожения
1012.6 968.0 -33.5 0.0 74
штиль 0 50 км {туман} 9/3 1000 м
[Sc Cs]
-22.4 -26.2 71 -22 -22 1013.4 970.7
штиль 0 50 км 9/5 1000 м
[Sc Ac lent Cs]
-15.0 -20.1 65 -15 -15 1012.1 970.7
З 1 20 км 9/8 600 м
[Sc Cs]
-20.0 -22.5 80 -23 -23 1013.0 970.7
З 4 2000 м слаб. ливневой снег 9/8 600 м
[Cb cap Ac trans]
-6.3 -12.4 62 -13 -13 1012.1 972.0 -6.3 0.1
СЗ 2 2000 м слаб. ливневой снег 9/8 600 м
[Cb cap Ac cuf]
-7.6 -12.6 67 -12 -12 1010.7 970.5
СЗ 1 20 км {ливн. осадки} 10/10 600 м
[Sc diur, vesp]
-7.6 -13.2 64 -10 -10 1010.9 970.7
З 1 20 км {ливн. осадки} 9/9 600 м
[Sc diur, vesp]
-8.6 -14.0 65 -11 -11 1009.6 969.3
Ю 1 50 км 8/8 600 м
[Sc]
-13.7 -15.5 86 -16 -16 1009.1 968.0 -13.8 0.0 69
СЗ 1 50 км 9/6 1000 м
[Sc Ac trans Ci fib]
-12.7 -15.1 82 -15 -15 1007.6 966.7 -16.1
СВ 1 50 км 8/3 1000 м
[Sc Ci fib]
-8.5 -13.2 69 -11 -10 1005.5 965.3
СЗ 2 50 км 3/3 1000 м
[Sc]
-9.4 -14.7 65 -14 -14 1007.1 966.7
СЗ 1 4000 м слаб. ливневой снег 10/8 600 м
[Cb cap Ac und]
-13.1 -15.8 80 -15 -15 1007.6 966.7 -7.9 0.0
штиль 0 50 км {ливн. осадки} 8/4 600 м
[Sc Ac trans]
-18.2 -20.6 81 -18 -18 1008.3 966.5
ЮВ 1 50 км 9/6 600 м
[Sc diur, vesp Ac trans]
-15.0 -17.1 84 -18 -18 1009.3 968.0
Ю 1 50 км в посл. час ливневой снег 9/9 600 м
[Sc diur, vesp]
-15.2 -17.3 84 -18 -18 1009.3 968.0
штиль 0 50 км ледяные иглы 4/4 600 м
[Sc]
-20.9 -23.7 78 -21 -21 1010.3 968.0 -20.9 0.0 70
штиль 0 50 км 3/3 1000 м
[Sc]
-15.7 -18.1 82 -16 -15 1010.8 969.3 -22.5
З 1 50 км 3/0
[Cs]
-9.3 -13.6 71 -12 -11 1008.4 968.0
штиль 0 50 км 4/0
[Cs]
-17.5 -19.7 83 -18 -18 1008.4 966.7
Ю 1 50 км 1/0
[Ci fib]
-22.5 -25.6 76 -26 -26 1007.8 965.3 -8.4
штиль 0 50 км 4/0
[Cs]
-23.8 -26.8 76 -24 -24 1005.3 962.7
СВ 1 50 км 4/0
[Cs]
-16.8 -19.1 82 -20 -20 1001.3 960.0
СВ 6-10
{11}
50 км позёмок 9/8 600 м
[Sc Cs]
-5.8 -16.4 43 -13 -13 995.4 956.0
СВ 8-15
{15}
50 км сильный позёмок 9/9 600 м
[Sc Cs]
-5.8 -14.8 49 -14 -14 992.5 953.3 -24.3 70
СВ 4
{16}
4000 м слаб. ливневой снег {метель} 10/10 600 м
[Cb cap]
-4.8 -12.0 57 -11 -11 992.4 953.3
СВ 5 4000 м слаб. ливневой снег {метель} 9/9 600 м
[Cb cap Ac cuf]
-3.8 -10.8 58 -10 -10 990.9 952.0
С 3
{10}
50 км {ливн. осадки, метель} 10/10 1000 м
[Sc diur, vesp]
-7.6 -13.0 65 -13 -13 994.3 954.7
С 3 50 км 9/8 1000 м
[Sc As trans]
-8.5 -14.1 64 -14 -14 997.1 957.3 -3.7 0.0
С 3 2000 м слаб. ливневой снег 10/10 600 м
[Cb cap]
-8.8 -12.6 74 -15 -15 999.8 959.9
З 2 20 км в посл. час ливневой снег 9/6 600 м
[Sc diur, vesp As trans]
-9.4 -13.3 73 -14 -14 1002.9 962.7
штиль 0 20 км {ливн. осадки} 10/10 600 м
[Sc diur, vesp]
-11.7 -13.7 85 -12 -12 1004.6 964.0
СЗ 1 2000 м слаб. ливневой снег 10/10 600 м
[Cb cap]
-10.2 -12.2 85 -12 -12 1005.7 965.3 -13.0 0.3 64
штиль 0 4000 м слаб. ливневой снег 10/10 600 м
[Cb cap]
-8.4 -10.9 82 -9 -9 1005.4 965.3
СЗ 2 20 км в посл. час ливневой снег 10/10 600 м
[Sc diur, vesp]
-3.5 -9.1 65 -7 -7 1004.7 965.3
СЗ 2 50 км {ливн. осадки} 10/4 600 м
[Sc diur, vesp As op]
-5.4 -12.1 59 -9 -9 1006.4 966.7
штиль 0 50 км 10/6 600 м
[Sc Ac trans Ci sp]
-12.8 -14.4 88 -13 -13 1008.9 968.0 -3.4 0.3
штиль 0 50 км 8/0
[Ac trans Ci sp]
-16.0 -17.8 86 -16 -16 1009.2 967.8
С 2 4000 м слаб. ливневой снег 9/6 600 м
[Cb cap Ac trans]
-10.0 -12.9 79 -14 -14 1009.8 969.3
штиль 0 4000 м слаб. ливневой снег 9/8 600 м
[Cb cap Ac trans]
-13.5 -15.2 87 -14 -14 1010.4 969.3
штиль 0 4000 м слаб. ливневой снег 9/8 600 м
[Cb cap Ci fib]
-17.2 -19.5 82 -17 -17 1012.5 970.7 -18.1 0.2 66
СЗ 1 4000 м слаб. ливневой снег 9/5 600 м
[Cb cap Ac trans]
-13.3 -15.6 83 -16 -16 1011.8 970.7
штиль 0 4000 м слаб. ливневой снег 9/6 600 м
[Cb cap Ac trans]
-8.2 -12.2 73 -9 -9 1009.6 969.3
З 1 4000 м слаб. ливневой снег 9/8 600 м
[Cb cap Ac trans]
-11.2 -12.9 87 -13 -13 1010.0 969.3
штиль 0 50 км ледяные иглы 6 баллов -21.1 -23.8 79 -21 -21 1011.7 969.3 -7.4 0.3
Местоположение метеостанции Начики (Камчатский край, Россия): широта 53.12 долгота 157.70 высота над уровнем моря 317 м.
В архиве по умолчанию представлена погода в Начиках за последнюю неделю. Архивные данные за месяц целиком и за предыдущие месяцы, начиная с января 2011 года, Вы можете получить, выбрав интересующий диапазон дат из раскрывающегося списка и нажав кнопку "Найти!".
*Определитесь, кто Вы:
Внимание! Время в таблицах - всемирное. Для получения местного времени необходимо прибавить поправку, которая равна 12 ч.
Смотрите также архив погоды в соседних городах и на ближайших метеорологических станциях:
Партнеры нашего сайта:      
Пояснения к столбцам:
  • Ветер - указаны скорость ветра в м/с - средняя за 10 мин, порывы в срок и между сроками (в фигурных скобках) и направление, откуда дует ветер: С - северный,
  • СВ - северо-восточный, В - восточный, ЮВ - юго-восточный, Ю - южный, ЮЗ - юго-западный, З - западный, СЗ - северо-западный.
  • Видимость - горизонтальная дальность видимости в метрах или километрах. При видимости от 1 до 10 км при отсутствии осадков обычно наблюдается дымка, при ухудшении видимости до 1 км и менее - туман. В сухую погоду видимость может ухудшаться дымом, пылью или мглою.
  • Явления - указаны атмосферные явления, наблюдавшиеся в срок или в последний час перед сроком; фигурными скобками обозначены явления, наблюдавшиеся между сроками (за 1-3 часа до срока); квадратными скобками обозначены град или гололедные отложения с указанием их диаметра в мм.
  • Облачность - указаны через наклонную черту общая и нижняя облачность в баллах и высота нижней границы облаков в метрах; квадратными скобками обозначены формы облаков: Ci - перистые, Cs - перисто-слоистые, Cc - перисто-кучевые, Ac - высококучевые, As - высокослоистые, Sc - слоисто-кучевые, Ns - слоисто-дождевые, Cu - кучевые, Cb - кучево-дождевые. Подробнее классификацию облаков см. в Атласе облаков (PDF).
  • T - Температура воздуха - температура, измеренная на высоте 2 м над землей.
  • Td - Температура точки росы - температура, при понижении до которой содержащийся в воздухе водяной пар достигнет насыщения.
  • f - Относительная влажность воздуха - влажноcть воздуха, измеренная на высоте 2 м над землей.
  • Te - Эффективная температура - температура, которую ощущает одетый по сезону человек в тени. Характеристика душности погоды. При расчете учитывается влияние влажности воздуха и скорости ветра на теплоощущения человека.
  • Tes - Эффективная температура на солнце - температура, которую ощущает человек, с поправкой на солнечный нагрев. Характеристика знойности погоды. Зависит от высоты солнца над горизонтом, облачности и скорости ветра. Ночью, в пасмурную погоду, а также при ветре 12 м/с и более поправка равна нулю.
  • P - Атмосферное давление - приведенное к уровню моря атмосферное давление.
  • Po - Атмосферное давление - измеренное на уровне метеостанции атмосферное давление.
  • Tmin - Минимальная температура - минимум температуры воздуха на высоте 2 м над землей.
  • Tmax - Максимальная температура - максимум температуры воздуха на высоте 2 м над землей.
  • R - Количество осадков - Количество выпавших осадков за период времени, мм. При наведении курсора мыши на число - период времени, за который выпало указанное количество осадков.
  • R24 - Количество осадков - Количество выпавших осадков за 24 часа, мм.
  • S - Снежный покров - Высота снежного покрова, см. При наведении курсора мыши на число - состояние снежного покрова и степень покрытия местности в баллах.